sat.trackr.live / text

‹ back to catalog

STARLINK-32881

NORAD 62997 · 2025-031S

PAYLOAD ACTIVE UNKNOWN

§ Identity

Operator
Country
US
Launch date
2025-02-11
Launch site
AFETR
Launch vehicle
Mass (kg)
RCS (m²)

Purposes: comms

External: N2YO · Heavens-Above · Gunter

§ Orbital elements

Epoch: 2026-09-21T21:20:48.596640Z

Period
94.27 min
Inclination
43.0006°
Eccentricity
0.0000505
Mean motion
15.27589520 rev/d
Perigee alt
482.7 km
Apogee alt
483.4 km
Semi-major
6,861.2 km
B*
4.7577e-4
RAAN
115.1083°
Arg perigee
291.8085°
Mean anomaly
68.2713°
Rev number
9,110

§ Raw data

STARLINK-328811 62997U 25031S   26264.88945135  .00012857  00000+0  47577-3 0  99922 62997  43.0006 115.1083 0000505 291.8085  68.2713 15.27589520 91102

JSON: /api/v1/satellites/62997 · /tle

For live sub-satellite position, see the globe view (requires WebGL).

§ Visibility from observer

Set your observer location to see the next 7 days of passes ≥ 10°. The values pass through the URL so the page stays shareable.

No JS? Fill the form by hand. The geolocation button needs JavaScript.